Visibility
4.2 12.4 15.0 14.9 9.4 7.7 10.6 15.0 15.0 15.0 15.0 15.0 15.0 15.0 15.0 15.0 15.0 15.0 15.0 15.0 0.2 9.3 15.0 15.0 15.0 15.0 15.0 15.0 15.0 15.0 15.0 15.0 15.0 15.0 15.0 15.0 15.0 15.0 15.0 15.0 15.0 15.0 15.0 15.0 15.0 15.0 15.0 15.0 15.0 15.0 15.0 15.0 15.0 15.0
10.8 15.0 15.0 15.0 15.0 14.8 12.4 15.0 15.0 15.0 15.0 15.0 15.0 15.0 15.0 15.0 15.0 15.0 12.6 15.0 15.0 15.0 15.0 15.0 15.0 15.0 15.0 15.0 15.0 15.0 15.0 15.0 15.0 15.0 15.0 15.0 15.0 15.0 15.0 15.0 15.0 15.0 15.0 15.0 15.0 15.0 15.0 15.0 15.0 15.0 15.0 15.0 15.0 15.0
12.4 2.4 14.9 15.0 15.0 15.0 10.4 13.7 10.8 8.9 15.0 15.0 15.0 15.0 15.0 15.0 15.0 15.0 15.0 15.0 15.0 15.0 12.6 15.0 15.0 15.0 15.0 15.0 15.0 15.0 15.0 15.0 15.0 15.0 15.0 15.0 15.0 15.0 15.0 15.0 15.0 15.0 15.0 15.0 15.0 15.0 15.0 15.0 15.0 15.0 15.0 15.0 15.0 15.0
15.0 15.0 4.3 15.0 15.0 15.0 12.1 12.2 11.6 9.8 9.6 15.0 15.0 15.0 15.0 15.0 15.0 15.0 15.0 15.0 15.0 15.0 6.9 15.0 15.0 15.0 15.0 15.0 15.0 15.0 15.0 15.0 15.0 15.0 15.0 15.0 15.0 15.0 15.0 15.0 15.0 15.0 15.0 15.0 15.0 15.0 15.0 15.0 15.0 15.0 15.0 15.0 15.0 15.0
15.0 8.4 3.8 11.8 15.0 14.2 7.9 11.1 9.9 8.8 6.3 10.7 12.8 14.4 12.1 15.0 15.0 15.0 15.0 15.0 15.0 15.0 3.8 15.0 15.0 15.0 15.0 15.0 15.0 15.0 15.0 15.0 15.0 15.0 15.0 15.0 15.0 15.0 15.0 15.0 15.0 15.0 15.0 15.0 15.0 15.0 15.0 15.0 15.0 15.0 15.0 15.0 15.0 15.0
15.0 15.0 14.7 4.5 7.7 4.4 5.4 7.4 7.5 7.8 6.3 6.7 6.0 12.1 9.8 7.6 15.0 15.0 15.0 15.0 15.0 15.0 0.3 15.0 15.0 15.0 15.0 15.0 15.0 15.0 15.0 15.0 15.0 15.0 15.0 15.0 15.0 15.0 15.0 15.0 15.0 15.0 15.0 15.0 15.0 15.0 15.0 15.0 15.0 15.0 15.0 15.0 15.0 15.0
15.0 15.0 9.6 2.6 2.7 3.2 3.1 4.0 4.2 5.0 5.6 6.7 4.4 8.3 12.5 14.9 15.0 13.1 7.5 15.0 15.0 15.0 0.2 2.4 12.6 15.0 15.0 15.0 15.0 15.0 15.0 15.0 15.0 15.0 15.0 15.0 15.0 15.0 14.4 15.0 15.0 15.0 15.0 15.0 15.0 15.0 15.0 15.0 15.0 15.0 15.0 15.0 15.0 15.0
15.0 15.0 13.4 3.6 4.7 3.8 4.0 4.2 3.4 3.6 4.4 4.4 4.1 5.8 6.4 15.0 15.0 15.0 15.0 15.0 15.0 1.7 2.6 15.0 14.7 15.0 15.0 15.0 15.0 15.0 15.0 15.0 15.0 15.0 15.0 15.0 15.0 15.0 15.0 15.0 15.0 15.0 15.0 15.0 15.0 15.0 15.0 15.0 15.0 15.0 15.0 15.0 15.0 15.0
15.0 15.0 8.3 3.1 1.7 4.6 4.3 4.2 2.8 2.4 4.3 3.1 4.5 5.3 14.9 15.0 12.9 14.7 15.0 15.0 15.0 15.0 14.4 0.1 12.1 15.0 15.0 15.0 15.0 15.0 15.0 15.0 15.0 3.7 6.7 15.0 15.0 15.0 15.0 15.0 15.0 15.0 15.0 15.0 15.0 15.0 15.0 15.0 15.0 15.0 15.0 15.0 15.0 15.0
15.0 15.0 15.0 8.9 4.6 3.7 3.1 3.2 2.7 3.3 3.1 3.7 7.2 6.3 1.0 15.0 15.0 15.0 15.0 15.0 15.0 13.6 0.1 0.2 14.7 0.4 14.9 15.0 12.0 14.2 15.0 15.0 6.6 15.0 14.9 0.2 1.9 15.0 15.0 15.0 15.0 15.0 15.0 15.0 15.0 15.0 15.0 15.0 15.0 15.0 15.0 15.0 15.0 15.0
15.0 15.0 15.0 15.0 9.6 3.0 2.7 2.5 2.7 3.6 3.5 5.8 0.1 1.3 13.1 10.0 11.7 11.6 0.2 10.1 2.4 0.4 0.3 9.2 15.0 1.2 15.0 15.0 15.0 15.0 3.8 0.8 10.8 15.0 5.7 6.1 14.5 15.0 15.0 15.0 15.0 15.0 15.0 15.0 15.0 15.0 15.0 15.0 15.0 15.0 15.0 15.0 15.0 15.0
15.0 15.0 15.0 15.0 10.3 2.6 2.7 2.4 3.1 4.4 7.3 10.4 4.8 10.5 3.7 0.5 0.4 0.6 1.9 9.5 3.8 1.0 10.2 0.3 6.5 15.0 15.0 15.0 3.5 0.6 15.0 0.1 0.2 0.6 0.2 4.2 15.0 15.0 15.0 15.0 15.0 15.0 15.0 15.0 15.0 15.0 15.0 15.0 15.0 15.0 15.0 15.0 15.0 15.0
15.0 15.0 15.0 15.0 3.7 2.4 2.5 2.9 5.7 14.9 15.0 15.0 0.7 0.1 0.1 0.1 0.1 0.8 1.0 2.6 2.2 15.0 1.9 0.1 0.1 15.0 5.6 15.0 12.2 1.0 1.7 0.1 0.1 0.1 6.4 15.0 15.0 15.0 15.0 15.0 15.0 15.0 15.0 15.0 15.0 15.0 15.0 15.0 15.0 15.0 15.0 15.0 15.0 15.0
15.0 15.0 15.0 15.0 1.5 3.0 2.7 3.0 7.2 15.0 15.0 0.7 0.3 0.1 0.2 0.1 2.8 15.0 15.0 15.0 15.0 15.0 1.6 14.2 0.4 13.8 13.4 1.0 0.1 0.1 0.2 0.0 0.1 0.4 15.0 15.0 15.0 15.0 15.0 15.0 15.0 15.0 15.0 15.0 15.0 15.0 15.0 15.0 15.0 15.0 15.0 15.0 15.0 15.0
15.0 15.0 15.0 15.0 1.7 2.9 2.7 4.4 15.0 15.0 15.0 1.1 1.4 0.6 0.9 15.0 15.0 15.0 14.5 13.2 14.8 15.0 13.6 0.1 0.0 5.3 0.0 4.4 0.1 0.4 0.2 0.1 9.9 15.0 15.0 15.0 15.0 15.0 15.0 15.0 15.0 15.0 15.0 15.0 15.0 15.0 15.0 15.0 15.0 15.0 15.0 15.0 15.0 15.0
15.0 9.6 15.0 5.8 2.6 3.0 3.3 8.5 15.0 10.7 0.9 1.4 2.6 4.0 15.0 15.0 5.1 7.2 1.9 5.6 15.0 15.0 15.0 15.0 0.9 5.6 1.2 13.9 0.1 1.5 10.0 15.0 15.0 15.0 15.0 15.0 15.0 15.0 15.0 15.0 15.0 15.0 15.0 15.0 15.0 15.0 15.0 15.0 15.0 15.0 15.0 15.0 15.0 15.0
3.9 0.1 7.1 4.0 4.1 3.0 3.9 3.2 0.1 0.3 1.3 6.3 14.5 15.0 15.0 15.0 15.0 15.0 15.0 14.6 15.0 15.0 0.3 14.3 1.1 2.5 1.7 1.6 7.2 15.0 15.0 15.0 15.0 15.0 15.0 15.0 15.0 15.0 15.0 15.0 15.0 15.0 15.0 15.0 15.0 15.0 15.0 15.0 15.0 15.0 15.0 15.0 15.0 15.0
1.6 1.8 2.5 2.1 0.4 1.1 0.1 0.2 0.4 1.3 5.3 4.6 15.0 15.0 15.0 15.0 15.0 12.6 15.0 15.0 15.0 15.0 15.0 15.0 15.0 8.1 14.1 15.0 15.0 15.0 15.0 15.0 15.0 15.0 15.0 15.0 15.0 15.0 15.0 15.0 15.0 15.0 15.0 15.0 15.0 15.0 15.0 15.0 15.0 15.0 15.0 15.0 15.0 15.0
1.6 0.2 0.1 2.6 6.7 0.9 0.1 0.1 1.5 13.9 15.0 4.9 8.6 15.0 15.0 15.0 15.0 15.0 15.0 15.0 15.0 15.0 15.0 10.5 0.3 9.0 15.0 15.0 15.0 15.0 15.0 15.0 1.5 8.3 15.0 15.0 15.0 15.0 15.0 15.0 15.0 15.0 15.0 15.0 15.0 15.0 15.0 15.0 15.0 15.0 15.0 15.0 15.0 15.0
1.3 4.8 6.2 10.2 8.5 0.6 0.4 0.9 11.7 15.0 12.4 15.0 13.5 15.0 15.0 15.0 15.0 12.8 15.0 15.0 15.0 15.0 15.0 3.0 15.0 15.0 15.0 15.0 15.0 15.0 15.0 15.0 15.0 4.7 15.0 15.0 15.0 15.0 15.0 15.0 15.0 15.0 15.0 15.0 15.0 15.0 15.0 15.0 15.0 15.0 15.0 15.0 15.0 15.0
0.9 8.9 4.9 2.7 0.4 12.9 2.1 0.3 11.1 13.0 5.7 9.4 15.0 15.0 6.8 15.0 4.2 1.9 0.7 15.0 1.5 15.0 15.0 15.0 15.0 15.0 15.0 15.0 15.0 15.0 15.0 15.0 15.0 15.0 15.0 15.0 15.0 15.0 15.0 15.0 15.0 15.0 15.0 15.0 15.0 15.0 15.0 15.0 15.0 15.0 15.0 15.0 15.0 15.0
0.1 0.5 0.1 0.2 0.3 0.2 11.4 3.7 15.0 6.5 5.4 5.8 15.0 15.0 15.0 6.9 15.0 8.4 9.7 1.6 2.9 15.0 15.0 15.0 15.0 15.0 15.0 15.0 15.0 15.0 15.0 15.0 15.0 15.0 15.0 15.0 15.0 15.0 15.0 15.0 15.0 15.0 15.0 15.0 15.0 15.0 15.0 15.0 15.0 15.0 15.0 15.0 9.1 14.7
0.2 0.5 0.1 0.1 0.2 0.2 0.2 1.3 13.5 13.2 15.0 5.8 15.0 14.4 14.9 2.2 9.8 15.0 14.7 15.0 15.0 15.0 15.0 15.0 15.0 15.0 15.0 15.0 15.0 15.0 15.0 15.0 15.0 15.0 15.0 15.0 15.0 15.0 15.0 15.0 15.0 15.0 15.0 15.0 15.0 15.0 15.0 15.0 15.0 15.0 15.0 15.0 15.0 12.3
2.4 0.2 0.1 0.1 0.1 0.1 0.1 0.1 0.1 0.3 2.7 5.0 2.5 4.5 11.5 1.1 1.4 10.0 14.4 15.0 15.0 15.0 15.0 15.0 15.0 15.0 15.0 15.0 15.0 15.0 15.0 15.0 15.0 15.0 15.0 15.0 15.0 15.0 15.0 15.0 15.0 15.0 15.0 15.0 15.0 15.0 15.0 15.0 15.0 15.0 15.0 15.0 15.0 15.0
0.3 0.1 0.1 0.1 0.1 1.3 3.9 0.3 0.2 0.1 0.1 1.7 15.0 15.0 14.9 1.0 0.1 0.1 0.4 15.0 15.0 15.0 15.0 15.0 15.0 15.0 15.0 15.0 15.0 15.0 15.0 15.0 15.0 15.0 15.0 15.0 15.0 15.0 15.0 15.0 15.0 15.0 15.0 15.0 15.0 15.0 15.0 15.0 15.0 15.0 15.0 15.0 15.0 15.0
0.2 0.1 0.5 1.1 0.7 15.0 2.2 0.3 0.4 5.3 15.0 0.5 1.5 13.8 15.0 15.0 15.0 15.0 15.0 15.0 15.0 15.0 15.0 15.0 15.0 15.0 15.0 15.0 15.0 15.0 15.0 15.0 15.0 15.0 15.0 15.0 15.0 15.0 15.0 15.0 15.0 15.0 15.0 15.0 15.0 15.0 15.0 15.0 15.0 15.0 15.0 15.0 15.0 15.0
0.3 1.7 4.9 4.0 15.0 15.0 15.0 13.6 14.4 6.1 3.0 12.6 15.0 4.5 12.7 15.0 15.0 15.0 15.0 15.0 15.0 15.0 15.0 15.0 15.0 15.0 15.0 15.0 15.0 15.0 15.0 15.0 15.0 15.0 15.0 15.0 15.0 15.0 15.0 15.0 15.0 15.0 15.0 15.0 15.0 15.0 15.0 15.0 15.0 15.0 15.0 15.0 15.0 15.0
15.0 4.9 15.0 15.0 15.0 15.0 14.5 15.0 15.0 4.4 15.0 15.0 15.0 13.7 15.0 15.0 15.0 15.0 15.0 15.0 15.0 15.0 15.0 15.0 15.0 15.0 15.0 15.0 15.0 15.0 15.0 15.0 15.0 15.0 15.0 15.0 15.0 15.0 15.0 15.0 15.0 15.0 15.0 15.0 15.0 15.0 15.0 15.0 15.0 15.0 15.0 15.0 15.0 15.0
7.8 10.9 15.0 9.5 15.0 6.5 4.7 4.8 12.3 15.0 15.0 15.0 15.0 15.0 15.0 15.0 15.0 15.0 15.0 15.0 15.0 15.0 15.0 15.0 15.0 15.0 15.0 15.0 15.0 15.0 15.0 15.0 15.0 15.0 15.0 15.0 15.0 15.0 15.0 15.0 15.0 15.0 15.0 15.0 15.0 15.0 15.0 15.0 15.0 15.0 15.0 15.0 15.0 15.0
8.3 9.1 15.0 15.0 15.0 15.0 15.0 15.0 15.0 15.0 15.0 15.0 15.0 15.0 15.0 15.0 15.0 15.0 15.0 15.0 15.0 15.0 15.0 15.0 15.0 15.0 15.0 15.0 15.0 15.0 15.0 15.0 15.0 15.0 15.0 15.0 15.0 15.0 15.0 15.0 15.0 15.0 15.0 15.0 15.0 15.0 15.0 15.0 15.0 15.0 15.0 15.0 15.0 15.0
14.0 12.0 15.0 15.0 15.0 15.0 15.0 15.0 15.0 15.0 15.0 15.0 15.0 15.0 15.0 15.0 15.0 15.0 15.0 15.0 15.0 15.0 15.0 15.0 15.0 15.0 15.0 15.0 15.0 15.0 15.0 15.0 15.0 15.0 15.0 15.0 15.0 15.0 15.0 15.0 15.0 15.0 15.0 15.0 15.0 15.0 15.0 15.0 15.0 15.0 15.0 15.0 15.0 15.0
8.4 15.0 15.0 15.0 15.0 15.0 14.8 15.0 15.0 15.0 15.0 15.0 15.0 15.0 15.0 15.0 15.0 15.0 15.0 15.0 15.0 15.0 15.0 15.0 15.0 15.0 15.0 15.0 15.0 15.0 15.0 15.0 15.0 15.0 15.0 15.0 15.0 15.0 15.0 15.0 15.0 15.0 15.0 15.0 15.0 15.0 15.0 15.0 15.0 15.0 15.0 15.0 15.0 15.0
4.1 10.7 15.0 15.0 4.3 5.9 10.7 15.0 15.0 15.0 15.0 15.0 15.0 15.0 15.0 15.0 15.0 15.0 15.0 15.0 15.0 15.0 15.0 15.0 15.0 15.0 15.0 15.0 15.0 15.0 15.0 15.0 15.0 15.0 15.0 15.0 15.0 15.0 15.0 15.0 15.0 15.0 15.0 15.0 15.0 15.0 15.0 15.0 15.0 15.0 15.0 15.0 15.0 15.0